Home   Weather   St. Catharines   Past weeks
Flag for Canada

Past Weather in St. Catharines, Ontario, Canada — Yesterday and Last 2 Weeks

Now
54 °F

Partly cloudy.


Feels Like: 51 °F
Forecast: 54 / 46 °F
Wind: 9 mph from Southwest

Location: Saint Catharines Airport

Current Time: Oct 22, 2019 at 8:09:11 pm

Latest Report: Oct 22, 2019 at 7:00 pm


Visibility: 15 mi

Pressure: 29.70 "Hg

Humidity: 100%

Dew Point: 54 °F

Location of St. CatharinesLocation

Past Weather in St. Catharines — Graph

°F

St. Catharines Temperature Yesterday

Maximum temperature yesterday: 68 °F (at 2:00 pm)
Minimum temperature yesterday: 41 °F (at 7:00 am)
Average temperature yesterday: 59 °F

High & Low Weather Summary for the Past Weeks

 TemperatureHumidityPressure
High72 °F (Oct 11, 5:00 pm)100% (Oct 8, 7:00 pm)30.36 "Hg (Oct 8, 7:00 pm)
Low37 °F (Oct 20, 7:00 am)32% (Oct 13, 4:00 pm)29.49 "Hg (Oct 16, 9:00 pm)
Average54 °F75%29.95 "Hg
* Reported Oct 7 7:00 pm — Oct 22 7:00 pm, St. Catharines. Weather by CustomWeather, © 2019

Note: Actual official high and low records may vary slightly from our data, if they occured in-between our weather recording intervals... More about our weather records

Advertising

St. Catharines Weather History for the Previous 24 Hours

Scroll right to see more
 ConditionsComfort  
Time TempWeatherWind HumidityBarometerVisibility
7:00 pm
Tue, Oct 22
54 °FPartly cloudy.9 mph100%29.70 "Hg15 mi
6:22 pm54 °FLight rain. Overcast.9 mph100%29.68 "Hg8 mi
5:00 pm57 °FBroken clouds.8 mph72%29.67 "Hg40 mi
4:00 pm57 °FPartly sunny.12 mph72%29.68 "Hg15 mi
3:00 pm61 °FPartly sunny.7 mph83%29.67 "Hg15 mi
2:00 pm61 °FOvercast.16 mph88%29.68 "Hg15 mi
1:00 pm61 °FCloudy.13 mph94%29.69 "Hg15 mi
12:54 pm61 °FMore clouds than sun.12 mph94%29.69 "Hg12 mi
12:00 pm59 °FLight rain. More clouds than sun.10 mph100%29.72 "Hg10 mi
11:00 am59 °FLight rain. More clouds than sun.14 mph100%29.74 "Hg9 mi
10:00 am59 °FLight rain. More clouds than sun.13 mph100%29.73 "Hg7 mi
9:00 am57 °FLight rain. Fog.13 mph100%29.77 "Hg3 mi
8:18 am59 °FLight rain. Overcast.14 mph94%29.71 "Hg10 mi
8:00 am59 °FMostly cloudy.14 mph94%29.71 "Hg15 mi
7:00 am57 °FPartly cloudy.13 mph100%29.73 "Hg15 mi
9:00 pm
Mon, Oct 21
59 °FMostly cloudy.9 mph68%29.82 "Hg15 mi
8:00 pm57 °FPassing clouds.10 mph77%29.84 "Hg15 mi
Weather by CustomWeather, © 2019

See weather overview